[[{"header":{"parameterUnit":"m.s-1","parameterCategory":1,"la1":30.2991,"la2":30.254,"lo1":-89.0895,"lo2":-89.0444,"dy":0.0017,"dx":0.0017,"nx":28,"ny":28,"refTime":"2024-12-13T09:00:00:Z","depth":0,"parameterNumber":2,"parameterNumberName":"U-component_of_WINDS"},"data":[0,0,0,0,0,0,0,0,0,0,0,0,0,0,0,0,0,0,0,0,0,0,0,0,0,0,0,0,0,0,0,0,0,0,0,0,0,0,0,0,0,0,0,0,0,0,0,0,0,0,0,0,0,0,0,0,0,0,-6.5306,-6.5307,0,-6.5388,-6.5388,-6.5389,-6.5229,-6.5224,-6.5218,-6.5213,-6.5299,-6.5306,-6.5313,0,0,0,0,0,0,0,0,0,0,0,0,0,-6.5014,-6.502,-6.5306,-6.5307,-6.5308,-6.5387,-6.5388,-6.539,-6.523,-6.5223,-6.5217,-6.5211,-6.5297,-6.5306,-6.5314,0,0,0,0,0,0,0,0,0,0,0,0,0,-6.5123,-6.5022,-6.5306,-6.5238,-6.5233,-6.5387,-6.5389,-6.539,-6.5231,-6.5223,-6.5215,-6.5208,-6.5294,-6.5305,-6.5315,-6.5541,0,0,-6.5348,-6.5353,0,0,0,0,0,0,0,0,-6.5117,-6.5134,-6.5247,-6.5243,-6.5237,-6.529,-6.5317,-6.5441,-6.5233,-6.5232,-6.5213,-6.5204,-6.5303,-6.5312,-6.5345,-6.5545,-6.5548,-6.5349,-6.5356,-6.5361,-6.5364,0,0,0,0,0,0,0,-6.511,-6.5129,-6.5338,-6.5249,-6.5243,-6.5204,-6.5211,-6.5339,-6.5311,-6.5231,-6.522,-6.5232,-6.5299,-6.5335,-6.5346,-6.5549,-6.5349,-6.5359,-6.5365,-6.537,-6.5936,-6.5944,0,0,0,0,0,0,-6.511,-6.5124,-6.5336,-6.5341,-6.5156,-6.5216,-6.5223,-6.5281,-6.5309,-6.5306,-6.5238,-6.5224,-6.5321,-6.5334,-6.5348,-6.5613,-6.536,-6.5371,-6.5377,-6.5928,-6.5938,-6.5947,0,0,0,0,0,0,-6.5105,-6.5131,-6.5332,-6.5229,-6.5252,-6.5229,-6.5296,-6.5287,-6.5323,-6.5314,-6.5308,-6.5281,-6.5315,-6.5333,-6.5493,-6.5614,-6.5375,-6.5385,-6.5918,-6.5931,-6.5943,-6.6145,0,0,0,0,0,0,-6.5097,-6.513,-6.5215,-6.5233,-6.5258,-6.5477,-6.5303,-6.5294,-6.5342,-6.5324,-6.5352,-6.535,-6.531,-6.5478,-6.5504,-6.5624,-6.5394,-6.5907,-6.5924,-6.5939,-6.6128,-6.6163,-6.6194,0,0,0,0,0,-6.5087,-6.5269,-6.522,-6.5246,-6.5364,-6.5484,-6.5499,-6.5448,-6.5352,-6.5438,-6.5432,-6.5349,-6.5596,-6.5496,-6.5524,-6.5649,-6.5899,-6.5919,-6.5938,-6.6113,-6.6156,-6.6193,0,0,0,0,0,0,-6.5268,-6.527,-6.5216,-6.5409,-6.5447,-6.5456,-6.5563,-6.5496,-6.5563,-6.5544,-6.5479,-6.5487,-6.566,-6.567,-6.5559,-6.5868,-6.5731,-6.5757,-6.5855,-6.5896,-6.5929,-6.5923,-6.5403,0,0,0,0,0,-6.533,-6.5426,-6.5424,-6.5595,-6.5616,-6.5587,-6.5637,-6.5595,-6.5632,-6.5648,-6.5654,-6.5694,-6.578,-6.5839,-6.5918,-6.6128,-6.6132,-6.6228,-6.6261,-6.6288,-6.6311,-6.6422,-6.6465,-6.6011,-6.6011,-6.601,0,0,-6.546,-6.5473,-6.5538,-6.5631,-6.5656,-6.5757,-6.5602,-6.5716,-6.5791,-6.5665,-6.5817,-6.5823,-6.5863,-6.6049,-6.6131,-6.6063,-6.6437,-6.6313,-6.6334,-6.6343,-6.6446,-6.649,-6.6528,-6.6024,-6.6021,-6.6019,0,0,-6.5748,-6.5768,-6.5912,-6.5939,-6.5978,-6.5957,-6.5992,-6.6011,-6.601,-6.616,-6.6068,-6.6156,-6.6307,-6.6339,-6.6375,-6.6675,-6.6601,-6.6702,-6.6876,-6.6984,-6.702,-6.7052,-6.7158,-6.7197,-6.6725,-6.6726,-6.6726,0,-6.5905,-6.6053,-6.5995,-6.6115,-6.6159,-6.6049,-6.6194,-6.6224,-6.6287,-6.632,-6.6242,-6.6428,-6.6447,-6.6639,-6.6712,-6.6745,-6.6782,-6.6699,-6.702,-6.7051,-6.7079,-6.718,-6.722,-6.6738,-6.6736,-6.6735,-6.6734,0,-6.6244,-6.6348,-6.646,-6.6523,-6.6579,-6.6712,-6.6673,-6.6737,-6.669,-6.6677,-6.6831,-6.6851,-6.6931,-6.6973,-6.6929,-6.7159,-6.7115,-6.703,-6.6892,-6.7135,-6.7229,-6.7267,-6.6755,-6.6751,-6.6747,-6.6744,0,0,-6.6649,-6.6676,-6.6719,-6.6745,-6.6779,-6.6859,-6.6987,-6.7064,-6.712,-6.7167,-6.7272,-6.7402,-6.7322,-6.7364,-6.7322,-6.7418,-6.7653,-6.732,-6.732,-6.7381,-6.7906,-6.7971,-6.8016,-6.7603,-6.7611,-6.7616,-6.7903,0,-6.6934,-6.7153,-6.7103,-6.7319,-6.7414,-6.7311,-6.7421,-6.7455,-6.7446,-6.7526,-6.7516,-6.7609,-6.7497,-6.7521,-6.7611,-6.7605,-6.7757,-6.7584,-6.7701,-6.7706,-6.7694,-6.8065,-6.8133,-6.8403,-6.7939,-6.7945,-6.795,0,-6.7297,-6.7356,-6.7582,-6.7599,-6.7637,-6.7738,-6.7804,-6.7882,-6.7917,-6.7904,-6.795,-6.7889,-6.8015,-6.7875,-6.8048,-6.7931,-6.7976,-6.798,-6.7989,-6.7998,-6.7843,-6.8084,-6.8488,-6.8529,-6.8007,-6.8002,-6.7998,0,-6.757,-6.7706,-6.7858,-6.7884,-6.7908,-6.7981,-6.7995,-6.8022,-6.8072,-6.813,-6.8162,-6.8235,-6.8275,-6.8333,-6.8294,-6.8196,-6.8473,-6.833,-6.8466,-6.8467,-6.8529,-6.8526,-6.8946,-6.8559,-6.8558,-6.8558,-6.8557,0,-6.7893,-6.8035,-6.798,-6.8074,-6.8229,-6.8171,-6.8327,-6.8328,-6.8353,-6.8445,-6.836,-6.8449,-6.8391,-6.8475,-6.8445,-6.8592,-6.8611,-6.8604,-6.8594,-6.8612,-6.8613,-6.864,-6.862,-6.8568,-6.8566,-6.8564,-6.8562,0,-6.8225,-6.8194,-6.8352,-6.8362,-6.8368,-6.8482,-6.849,-6.8577,-6.8561,-6.8679,-6.8703,-6.8679,-6.8773,-6.8739,-6.884,-6.8819,-6.9007,-6.8973,-6.8995,-6.8987,-6.9124,-6.9112,-6.9576,-6.9634,-6.9211,-6.9215,-6.9218,0,-6.8433,-6.8539,-6.856,-6.8615,-6.8635,-6.8725,-6.8774,-6.8721,-6.8776,-6.8824,-6.8905,-6.8991,-6.9057,-6.9212,-6.9204,-6.9281,-6.9248,-6.9405,-6.9259,-6.9273,-6.925,-6.9244,-6.9254,-6.9435,-6.944,-6.9444,-6.9447,0,-6.8807,-6.8786,-6.886,-6.893,-6.8992,-6.9044,-6.9089,-6.9139,-6.9088,-6.9155,-6.9249,-6.93,-6.9402,-6.9489,-6.9557,-6.9571,-6.9502,-6.9493,-6.9528,-6.9547,-6.9555,-6.9552,-6.9075,-6.9483,-6.9479,-6.9477,-6.9475,-6.9473,-6.9083,-6.9172,-6.92,-6.9286,-6.9314,-6.9357,-6.9439,-6.9433,-6.9511,-6.9589,-6.9552,-6.9662,-6.9693,-6.9777,-6.9801,-6.9886,-6.9825,-6.9876,-6.9889,-6.9903,-6.992,-6.9542,-6.9898,-6.9897,-6.9896,-6.9895,-6.9895,0,-6.9451,-6.9464,-6.9543,-6.9608,-6.9676,-6.9603,-6.9648,-6.971,-6.9807,-6.9842,-6.9908,-7.0016,-7.01,-7.0098,-7.0175,-7.0243,-7.0213,-7.0265,-7.026,-7.0264,-6.9971,-6.9932,-7.0288,-7.0288,-7.0288,-7.0288,-7.0288,-7.0288,-6.9651,-6.9798,-6.978,-6.994,-6.9951,-7.0057,-7.0089,-7.0129,-7.0156,-7.0281,-7.0349,-7.0347,-7.0367,-7.0445,-7.0518,-7.0515,-7.0547,-7.0612,-7.0597,-7.0324,-7.0285,-7.0247,-7.0211,-7.0619,-7.062,-7.0883,-7.0885,-7.0887]},{"header":{"parameterUnit":"m.s-1","parameterCategory":1,"la1":30.2991,"la2":30.254,"lo1":-89.0895,"lo2":-89.0444,"dy":0.0017,"dx":0.0017,"nx":28,"ny":28,"refTime":"2024-12-13T09:00:00:Z","depth":0,"parameterNumber":3,"parameterNumberName":"V-component_of_WINDS"},"data":[0,0,0,0,0,0,0,0,0,0,0,0,0,0,0,0,0,0,0,0,0,0,0,0,0,0,0,0,0,0,0,0,0,0,0,0,0,0,0,0,0,0,0,0,0,0,0,0,0,0,0,0,0,0,0,0,0,0,-2.3053,-2.3053,0,-2.3053,-2.3053,-2.3053,-2.3022,-2.3021,-2.3021,-2.302,-2.302,-2.302,-2.3021,0,0,0,0,0,0,0,0,0,0,0,0,0,-2.3025,-2.3026,-2.3053,-2.3053,-2.3053,-2.3053,-2.3053,-2.3053,-2.3022,-2.3021,-2.302,-2.3019,-2.3019,-2.302,-2.3021,0,0,0,0,0,0,0,0,0,0,0,0,0,-2.3032,-2.3026,-2.3053,-2.3038,-2.3036,-2.3053,-2.3053,-2.3053,-2.3023,-2.3021,-2.302,-2.3019,-2.3019,-2.302,-2.3021,-2.3052,0,0,-2.3025,-2.3025,0,0,0,0,0,0,0,0,-2.3032,-2.3033,-2.304,-2.3039,-2.3037,-2.3036,-2.3043,-2.3053,-2.3023,-2.3028,-2.302,-2.3018,-2.3026,-2.3027,-2.3029,-2.3052,-2.3052,-2.3025,-2.3026,-2.3026,-2.3026,0,0,0,0,0,0,0,-2.3032,-2.3033,-2.3053,-2.304,-2.3038,-2.303,-2.303,-2.3045,-2.3034,-2.3027,-2.3025,-2.3025,-2.3025,-2.3028,-2.3029,-2.3052,-2.3025,-2.3026,-2.3027,-2.3027,-2.3099,-2.31,0,0,0,0,0,0,-2.3033,-2.3033,-2.3053,-2.3053,-2.3032,-2.3032,-2.3032,-2.3038,-2.3033,-2.3032,-2.3026,-2.3024,-2.3027,-2.3028,-2.3029,-2.3063,-2.3026,-2.3027,-2.3028,-2.3098,-2.31,-2.3101,0,0,0,0,0,0,-2.3033,-2.3035,-2.3053,-2.3042,-2.3044,-2.3034,-2.3041,-2.3038,-2.3041,-2.3033,-2.3031,-2.3032,-2.3026,-2.3027,-2.3046,-2.3063,-2.3028,-2.3029,-2.3097,-2.3098,-2.31,-2.3134,0,0,0,0,0,0,-2.3032,-2.3035,-2.3047,-2.3043,-2.3045,-2.307,-2.3042,-2.3039,-2.3043,-2.304,-2.3037,-2.3036,-2.3025,-2.3045,-2.3048,-2.3064,-2.3029,-2.3095,-2.3097,-2.31,-2.3131,-2.3137,-2.3141,0,0,0,0,0,-2.3031,-2.3057,-2.3048,-2.3051,-2.3059,-2.3072,-2.3072,-2.306,-2.3045,-2.3056,-2.3051,-2.3036,-2.3061,-2.3047,-2.305,-2.3067,-2.3094,-2.3097,-2.3099,-2.3129,-2.3136,-2.3141,0,0,0,0,0,0,-2.3064,-2.3056,-2.3046,-2.3071,-2.3072,-2.3066,-2.3081,-2.3068,-2.3073,-2.307,-2.3054,-2.3054,-2.3075,-2.3073,-2.3058,-2.3096,-2.3075,-2.3078,-2.3096,-2.3102,-2.3107,-2.3107,-2.303,0,0,0,0,0,-2.3074,-2.3085,-2.3078,-2.31,-2.3101,-2.3091,-2.3096,-2.3086,-2.3087,-2.3087,-2.3083,-2.3084,-2.3091,-2.3097,-2.3104,-2.3131,-2.3129,-2.3144,-2.3149,-2.3154,-2.3156,-2.3169,-2.3175,-2.311,-2.311,-2.311,0,0,-2.3095,-2.3092,-2.31,-2.3107,-2.3106,-2.3117,-2.3092,-2.3105,-2.3112,-2.3089,-2.3106,-2.3103,-2.3103,-2.3126,-2.3136,-2.3125,-2.3174,-2.3157,-2.3161,-2.3161,-2.3172,-2.3178,-2.3184,-2.3112,-2.3112,-2.3111,0,0,-2.3138,-2.3138,-2.3156,-2.3156,-2.3156,-2.3149,-2.3153,-2.3149,-2.3146,-2.3163,-2.3145,-2.3154,-2.3169,-2.3169,-2.3171,-2.3214,-2.32,-2.3217,-2.3243,-2.3255,-2.326,-2.3265,-2.3279,-2.3284,-2.322,-2.322,-2.322,0,-2.3164,-2.318,-2.3167,-2.3181,-2.3184,-2.3163,-2.3181,-2.3182,-2.3184,-2.3186,-2.3174,-2.3191,-2.319,-2.3211,-2.3222,-2.3225,-2.3228,-2.3216,-2.3261,-2.3265,-2.3269,-2.3282,-2.3287,-2.3222,-2.3222,-2.3222,-2.3221,0,-2.3211,-2.3223,-2.3237,-2.3239,-2.3244,-2.326,-2.3249,-2.3255,-2.3245,-2.3239,-2.3256,-2.3254,-2.3259,-2.3264,-2.3255,-2.3284,-2.3277,-2.3264,-2.3242,-2.3277,-2.3289,-2.3294,-2.3225,-2.3224,-2.3224,-2.3223,0,0,-2.3275,-2.3269,-2.3274,-2.3274,-2.3272,-2.328,-2.3295,-2.33,-2.3305,-2.3308,-2.3319,-2.3331,-2.3318,-2.332,-2.3311,-2.3322,-2.3354,-2.3306,-2.3306,-2.3314,-2.3385,-2.3394,-2.34,-2.3345,-2.3346,-2.3347,-2.3384,0,-2.3315,-2.3339,-2.3328,-2.3353,-2.3362,-2.3343,-2.3355,-2.3355,-2.335,-2.3357,-2.3352,-2.336,-2.3343,-2.3344,-2.3354,-2.3348,-2.3368,-2.3346,-2.3354,-2.3355,-2.3353,-2.3406,-2.3416,-2.3452,-2.3389,-2.339,-2.339,0,-2.3366,-2.3369,-2.3395,-2.339,-2.3394,-2.3405,-2.3408,-2.3416,-2.3415,-2.341,-2.3413,-2.34,-2.3414,-2.3393,-2.3411,-2.3396,-2.3399,-2.3397,-2.3398,-2.3397,-2.3374,-2.3405,-2.3463,-2.3467,-2.3398,-2.3397,-2.3397,0,-2.3407,-2.3419,-2.3435,-2.3436,-2.3431,-2.3439,-2.3438,-2.3436,-2.3439,-2.3442,-2.3444,-2.3449,-2.3451,-2.3455,-2.3444,-2.3431,-2.3463,-2.3442,-2.3458,-2.3459,-2.3465,-2.3464,-2.3522,-2.347,-2.347,-2.347,-2.3469,0,-2.3453,-2.3469,-2.3454,-2.3464,-2.3481,-2.3468,-2.3485,-2.3481,-2.348,-2.3488,-2.3473,-2.3481,-2.3467,-2.3474,-2.3466,-2.348,-2.3482,-2.3478,-2.3475,-2.3478,-2.3479,-2.3479,-2.3476,-2.3471,-2.3471,-2.347,-2.347,0,-2.3501,-2.3492,-2.3508,-2.3502,-2.3501,-2.3514,-2.3508,-2.3517,-2.3511,-2.3522,-2.3524,-2.3514,-2.3521,-2.3511,-2.3518,-2.3512,-2.3532,-2.3526,-2.3532,-2.353,-2.3546,-2.3544,-2.3605,-2.3611,-2.3557,-2.3557,-2.3558,0,-2.353,-2.3542,-2.3537,-2.3541,-2.354,-2.3548,-2.3551,-2.3538,-2.3542,-2.3542,-2.3551,-2.3557,-2.356,-2.3573,-2.3566,-2.3571,-2.3564,-2.3585,-2.3565,-2.3567,-2.3562,-2.3561,-2.3562,-2.3589,-2.3589,-2.359,-2.359,0,-2.3581,-2.3576,-2.3581,-2.3585,-2.3589,-2.3591,-2.3592,-2.3597,-2.3583,-2.3589,-2.3596,-2.3599,-2.3605,-2.361,-2.3613,-2.3611,-2.3598,-2.3597,-2.3601,-2.3603,-2.3605,-2.3603,-2.3541,-2.3595,-2.3595,-2.3595,-2.3594,-2.3594,-2.362,-2.3629,-2.3626,-2.3632,-2.3631,-2.3633,-2.364,-2.3635,-2.364,-2.3644,-2.3636,-2.3645,-2.3643,-2.3645,-2.3645,-2.3651,-2.3642,-2.3648,-2.3649,-2.365,-2.3652,-2.3606,-2.3652,-2.3652,-2.3652,-2.3652,-2.3651,0,-2.3669,-2.3666,-2.3672,-2.3673,-2.3678,-2.3666,-2.3666,-2.367,-2.3678,-2.3678,-2.3682,-2.3689,-2.3694,-2.3688,-2.3692,-2.3698,-2.3692,-2.37,-2.3698,-2.3698,-2.3661,-2.3656,-2.3704,-2.3704,-2.3704,-2.3704,-2.3704,-2.3704,-2.3694,-2.3708,-2.3703,-2.3716,-2.3713,-2.3721,-2.3722,-2.3723,-2.3722,-2.3731,-2.3735,-2.3731,-2.3728,-2.3732,-2.3736,-2.3734,-2.3736,-2.3745,-2.374,-2.3706,-2.3701,-2.3695,-2.3691,-2.3746,-2.3746,-2.3776,-2.3777,-2.3777]}]]